Location: Rosenheim
(47.8537°N, 12.1196°E)
Time: 00:28:33
(UTC+01:00)

ISS - Visible Passes

Search period start: 29 November 2021 00:00
Search period end: 09 December 2021 00:00
Orbit: 417 x 423 km, 51.6° (Epoch: 28 November)

Date Brightness Start Highest point End Pass type
(mag) Time Alt. Az. Time Alt. Az. Time Alt. Az.
29 Nov -3.2 17:05:31 10° W 17:08:49 46° N 17:11:56 11° ENE visible
29 Nov -2.3 18:42:42 10° WNW 18:44:54 33° NW 18:44:54 33° NW visible
30 Nov -3.2 17:55:28 10° WNW 17:58:45 43° N 17:59:38 35° NE visible
30 Nov -0.3 19:32:22 10° WNW 19:32:37 12° WNW 19:32:37 12° WNW visible
01 Dec -3.1 17:08:11 10° WNW 17:11:27 41° N 17:14:23 12° ENE visible
01 Dec -2.4 18:45:10 10° WNW 18:47:22 37° WNW 18:47:22 37° WNW visible
02 Dec -3.6 17:57:56 10° WNW 18:01:19 59° NNE 18:02:11 42° ENE visible
02 Dec -0.3 19:34:54 10° WNW 19:35:10 12° W 19:35:10 12° W visible
03 Dec -3.4 17:10:41 10° WNW 17:14:01 49° N 17:17:04 12° E visible
03 Dec -2.4 18:47:35 10° WNW 18:50:04 40° W 18:50:04 40° W visible
04 Dec -3.7 18:00:18 10° WNW 18:03:42 79° SSW 18:05:04 33° SE visible
04 Dec -0.2 19:37:56 10° W 19:38:05 11° W 19:38:05 11° W visible
05 Dec -3.8 17:13:01 10° WNW 17:16:26 77° NNE 17:19:50 10° ESE visible
05 Dec -1.7 18:50:13 10° W 18:53:00 24° SW 18:53:16 24° SSW visible
06 Dec -2.2 18:02:43 10° WNW 18:05:52 35° SW 18:08:41 12° SSE visible
07 Dec -2.9 17:15:20 10° WNW 17:18:39 53° SSW 17:21:59 10° SE visible
08 Dec -0.7 18:05:40 10° W 18:07:46 16° SW 18:09:52 10° S visible
